This demonstration page uses our WeatherBlox Daily Observations layout. Learn more.

Left ArrowRight Arrow

39.51506, -84.39828

Hourly Observations for May 21, 2016

Temp ( °F °C ) Dew Point ( °F °C ) Humidity (%) Winds ( mph kmh ) Pressure ( in mb ) Visibility ( mi km ) Precip ( " mm )
12:15 am 00:15 Cloudy with Drizzle 60 15.3 55 12.5 84 84 NNE 3 6 30.03 1017 5 8 N/A
12:35 am 00:35 Cloudy with Drizzle 60 15.3 55 12.5 84 84 N 5 7 29.97 1015 7 11 N/A
12:55 am 00:55 Cloudy with Drizzle 60 15.3 55 12.5 84 84 N 6 9 29.97 1015 7 11 N/A
1:15 am 01:15 Cloudy with Drizzle 60 15.3 55 12.5 84 84 N 5 7 29.97 1015 7 11 N/A
1:35 am 01:35 Cloudy with Light Rain 60 15.3 55 12.5 84 84 N 5 7 29.97 1015 7 11 N/A
1:55 am 01:55 Cloudy with Drizzle 60 15.3 55 12.6 84 84 N 6 9 29.97 1015 4 6 N/A
2:15 am 02:15 Cloudy with Haze 60 15.3 55 12.7 85 85 NNE 5 7 29.97 1015 5 8 N/A
2:35 am 02:35 Cloudy with Drizzle 60 15.3 55 12.6 84 84 N 5 7 29.94 1014 4 6 N/A
2:55 am 02:55 Cloudy with Haze 60 15.3 55 12.7 85 85 N 5 7 29.94 1014 5 8 N/A
3:15 am 03:15 Cloudy with Haze 60 15.3 55 12.7 85 85 N 5 7 29.94 1014 5 8 N/A
3:35 am 03:35 Cloudy 60 15.3 55 12.7 85 85 N 6 9 29.94 1014 7 11 N/A
3:55 am 03:55 Cloudy 60 15.3 55 12.5 84 84 N 6 9 29.94 1014 10 16 N/A
4:15 am 04:15 Cloudy 60 15.3 55 12.5 84 84 N 7 11 29.94 1014 10 16 N/A
4:35 am 04:35 Cloudy 60 15.3 55 12.5 84 84 NNW 6 9 29.94 1014 10 16 N/A
4:55 am 04:55 Cloudy 57 14 52 11.1 83 83 NNW 6 9 29.97 1015 7 11 N/A
5:15 am 05:15 Cloudy 57 13.8 52 11 83 83 N 7 11 29.97 1015 7 11 N/A
5:35 am 05:35 Cloudy 57 13.8 52 11 83 83 N 7 11 29.97 1015 7 11 N/A
5:55 am 05:55 Cloudy 57 13.8 52 11 83 83 N 6 9 29.97 1015 10 16 N/A
6:15 am 06:15 Cloudy 57 13.8 52 11 83 83 N 5 7 29.97 1015 7 11 N/A
6:35 am 06:35 Cloudy with Light Rain 57 13.8 52 11 83 83 N 5 7 29.97 1015 7 11 N/A
6:55 am 06:55 Cloudy with Light Rain 57 13.8 52 11 83 83 NNW 5 7 30.00 1016 7 11 N/A
7:15 am 07:15 Cloudy with Rain 57 13.8 52 11 83 83 NNW 6 9 30.00 1016 7 11 N/A
7:35 am 07:35 Cloudy with Rain 57 13.8 52 11 83 83 N 6 9 30.00 1016 7 11 N/A
7:55 am 07:55 Cloudy with Light Rain 57 13.8 52 11 83 83 N 5 7 30.00 1016 5 8 N/A
8:15 am 08:15 Cloudy with Drizzle 57 13.8 52 11.1 84 84 N 5 7 30.00 1016 10 16 N/A
8:35 am 08:35 Cloudy with Drizzle 57 13.8 52 11.1 84 84 N N/A 30.00 1016 10 16 N/A
8:55 am 08:55 Cloudy with Light Rain 59 15.1 54 12.3 83 83 NNW 6 9 30.00 1016 7 11 N/A
9:15 am 09:15 Cloudy 60 15.3 54 12.4 83 83 N 7 11 29.97 1015 10 16 N/A
9:35 am 09:35 Cloudy 60 15.3 54 12.1 81 81 N 7 11 29.97 1015 10 16 N/A
9:55 am 09:55 Cloudy with Light Rain 60 15.3 54 12 81 81 N 7 11 29.97 1015 7 11 N/A
10:15 am 10:15 Cloudy with Rain 60 15.3 54 12 81 81 NNW 5 7 29.97 1015 5 8 N/A
10:35 am 10:35 Cloudy 60 15.3 54 12 81 81 NW 5 7 29.97 1015 10 16 N/A
10:55 am 10:55 Cloudy 60 15.7 54 12.1 79 79 NW 6 9 29.97 1015 10 16 N/A
11:15 am 11:15 Cloudy 61 15.9 54 12.1 78 78 NW 8 13 30.00 1016 10 16 N/A
11:35 am 11:35 Cloudy 61 16 53 11.8 76 76 NNW 6 9 30.00 1016 10 16 N/A
11:55 am 11:55 Cloudy 61 16 52 11.3 74 74 NW 6 9 30.00 1016 10 16 N/A
12:15 pm 12:15 Cloudy 62 16.6 53 11.5 72 72 NNW 7 11 30.00 1016 10 16 N/A
12:35 pm 12:35 Cloudy 61 16 51 10.8 71 71 N 7 11 30.00 1016 10 16 N/A
12:55 pm 12:55 Cloudy 61 16.1 52 10.9 71 71 N 7 11 30.00 1016 10 16 N/A
1:15 pm 13:15 Cloudy 61 16.2 51 10.6 70 70 N 9 15 30.00 1016 10 16 N/A
1:35 pm 13:35 Cloudy 61 16 51 10.5 70 70 N 12 19 30.00 1016 10 16 N/A
1:55 pm 13:55 Cloudy 61 16 51 10.4 70 70 N 8 13 30.00 1016 10 16 N/A
2:15 pm 14:15 Cloudy 62 16.5 52 11.1 71 71 N 10 17 30.00 1016 10 16 N/A
2:35 pm 14:35 Cloudy 62 16.9 51 10.8 67 67 N 9 15 30.00 1016 10 16 N/A
2:55 pm 14:55 Cloudy 64 17.8 51 10.7 63 63 N 12 19 30.00 1016 10 16 N/A
3:15 pm 15:15 Cloudy 64 18 50 10.2 61 61 N 13 20 30.00 1016 10 16 N/A
3:35 pm 15:35 Cloudy 64 17.7 51 10.4 62 62 N 12 19 30.00 1016 10 16 N/A
3:55 pm 15:55 Cloudy 62 16.6 49 9.2 62 62 N 15 24 30.00 1016 10 16 N/A
4:15 pm 16:15 Cloudy 62 16.6 49 9.7 64 64 N 7 11 30.00 1016 10 16 N/A
4:35 pm 16:35 Cloudy 62 16.7 50 10.1 65 65 N 5 7 30.00 1016 10 16 N/A
4:55 pm 16:55 Cloudy 63 17 50 10.2 64 64 NNW 3 6 30.00 1016 10 16 N/A
5:15 pm 17:15 Cloudy 63 17 49 9.6 62 62 N 9 15 30.00 1016 10 16 N/A
5:35 pm 17:35 Cloudy with Light Rain 61 16 50 10.1 68 68 NW 8 13 30.00 1016 10 16 N/A
5:55 pm 17:55 Cloudy 62 16.6 51 10.5 67 67 NW 6 9 30.00 1016 10 16 N/A
6:15 pm 18:15 Cloudy 64 18 52 10.9 63 63 NNW 7 11 30.00 1016 10 16 N/A
6:35 pm 18:35 Cloudy 64 18 50 10.1 60 60 NW 6 9 30.00 1016 10 16 N/A
6:55 pm 18:55 Cloudy 67 19.6 50 10.1 54 54 NNW 6 9 30.00 1016 10 16 N/A
7:15 pm 19:15 Mostly Cloudy 67 19.5 49 9.7 53 53 NNW 5 7 30.00 1016 10 16 N/A
7:35 pm 19:35 Mostly Cloudy 67 19.5 48 8.8 50 50 N 5 7 30.00 1016 10 16 N/A
7:55 pm 19:55 Mostly Cloudy 65 18.4 47 8.6 53 53 NW 3 6 30.00 1016 10 16 N/A
8:15 pm 20:15 Partly Cloudy 63 17.2 48 8.7 58 58 N N/A 30.00 1016 10 16 N/A
8:35 pm 20:35 Sunny 61 16 49 9.5 66 66 N N/A 30.00 1016 10 16 N/A
8:55 pm 20:55 Clear 59 14.8 51 10.4 75 75 N N/A 30.03 1017 10 16 N/A
9:15 pm 21:15 Clear 57 13.8 51 10.3 80 80 N N/A 30.03 1017 10 16 N/A
9:35 pm 21:35 Clear 57 13.8 50 10 78 78 N N/A 30.03 1017 10 16 N/A
9:55 pm 21:55 Clear 57 13.8 50 10.2 79 79 N N/A 30.03 1017 10 16 N/A
10:15 pm 22:15 Clear 55 12.5 48 9 79 79 N N/A 30.03 1017 10 16 N/A
10:35 pm 22:35 Hazy 55 12.5 49 9.4 82 82 N N/A 30.03 1017 5 8 N/A
10:55 pm 22:55 Clear 55 12.5 49 9.5 82 82 N N/A 30.03 1017 10 16 N/A
11:15 pm 23:15 Clear 55 12.5 49 9.5 82 82 N N/A 30.06 1018 10 16 N/A
11:35 pm 23:35 Hazy 55 12.5 49 9.5 82 82 N N/A 30.03 1017 4 6 N/A
11:55 pm 23:55 Mostly Cloudy with Haze 52 11 47 8.2 83 83 N N/A 30.03 1017 2 3 N/A

Powered by AerisWeather